Regional Weather Roundup
Issued by NWS Nashville, TN

Home | Current Version | Previous Version | Text Only | Print | Product List | Glossary On
Versions: 1 2 3 4 5 6 7 8 9 10 11 12 13 14 15 16 17 18 19 20 21 22 23 24 25 26 27
000
ASUS44 KOHX 301610
RWROHX
MIDDLE TENNESSEE HOURLY WEATHER ROUNDUP
NATIONAL WEATHER SERVICE NASHVILLE TN
1100 AM CDT MON MAY 30 2016

NOTE: "FAIR" INDICATES FEW OR NO CLOUDS BELOW 12,000 FEET WITH
NO SIGNIFICANT WEATHER AND/OR OBSTRUCTIONS TO VISIBILITY.

* THESE REPORTS ARE NOT UNDER NWS QUALITY CONTROL AND MAY NOT
  REPORT WEATHER SUCH AS PRECIPITATION AND FOG.


TNZ005>011-023>034-057-059-062>066-078-080-301700
...NORTHERN MIDDLE TENNESSEE...

CITY           SKY/WX    TMP DP  RH WIND       PRES   REMARKS
CLARKSVILLE    SUNNY     84  59  42 VRB7      30.06F
CROSSVILLE     MOSUNNY   79  60  52 N9        30.10F
DICKSON        SUNNY     81  63  54 NE7       30.08S
LEBANON        SUNNY     82  62  50 N6        30.05F
NASHVILLE      PTSUNNY   85  60  42 N8        30.07S
SMYRNA         MOSUNNY   84  62  47 CALM      30.07F
SPARTA         MOSUNNY   82  66  57 N6        30.06S
$$
TNZ056-058-060-061-075>077-079-093>097-301700
...SOUTHERN MIDDLE TENNESSEE...

CITY           SKY/WX    TMP DP  RH WIND       PRES   REMARKS
COLUMBIA       MOSUNNY   84  70  61 VRB3      30.05F
FAYETTEVILLE   MOSUNNY   82  64  54 NE6       30.06F
LEWISBURG      MOSUNNY   85  66  52 N6        30.05F
MCMINNVILLE    MOSUNNY   82  66  57 NE3       30.06F
SHELBYVILLE    SUNNY     84  64  51 NE9       30.07S
TULLAHOMA      MOSUNNY   82  64  54 CALM      30.08S
WINCHESTER     MOSUNNY   84  64  51 N7        30.06S
$$


...KEY TO REMARKS...
VSB - VISIBILITY IN MILES
WCI - WIND CHILL INDEX
HX  - HEAT INDEX





USA.gov is the U.S. government's official web portal to all federal, state and local government web resources and services.